When you browse on this site, cookies collect data to enhance your experience and personalize the content and advertising you see.
Visit our Privacy Policy to learn more. By continuing to use the site, you agree to this use of cookies and data.
  • In United States
  • List of Countries
  • For 7 days
  • Water Temperature
  • Weather Map
  • Weather Widgets
  • user-avatar
    Login

    Hourly Weather Washington

    Today, 10 April, Friday

    Time Temperature Precipitation Wind Pressure Humidity
    00:00 +3°C° 0 mm 6 mps 743 mmHg 57%
    01:00 +2°C° 0 mm 5 mps 743 mmHg 55%
    02:00 +2°C° 0 mm 6 mps 743 mmHg 55%
    03:00 +1°C° 0 mm 6 mps 743 mmHg 55%
    04:00 +1°C° 0 mm 6 mps 743 mmHg 56%
    05:00 +1°C° 0 mm 6 mps 744 mmHg 55%
    06:00 +1°C° 0 mm 6 mps 744 mmHg 55%
    07:00 +2°C° 0 mm 7 mps 744 mmHg 55%
    08:00 +2°C° 0 mm 8 mps 745 mmHg 50%
    09:00 +4°C° 0 mm 8 mps 745 mmHg 46%
    10:00 +5°C° 0 mm 9 mps 745 mmHg 42%
    11:00 +6°C° 0 mm 9 mps 745 mmHg 41%
    12:00 +7°C° 0 mm 9 mps 745 mmHg 40%
    13:00 +8°C° 0 mm 9 mps 745 mmHg 39%
    14:00 +8°C° 0 mm 9 mps 745 mmHg 40%
    15:00 +8°C° 0 mm 9 mps 746 mmHg 40%
    16:00 +8°C° 0 mm 9 mps 746 mmHg 41%
    17:00 +8°C° 0 mm 7 mps 747 mmHg 45%
    18:00 +5°C° 0 mm 6 mps 748 mmHg 49%
    19:00 +5°C° 0 mm 5 mps 749 mmHg 53%
    20:00 +4°C° 0 mm 4 mps 750 mmHg 54%
    21:00 +3°C° 0 mm 4 mps 750 mmHg 56%
    22:00 +3°C° 0 mm 4 mps 751 mmHg 58%
    23:00 +2°C° 0 mm 3 mps 752 mmHg 61%

    Tomorrow, 11 April, Saturday

    Time Temperature Precipitation Wind Pressure Humidity
    00:00 +2°C° 0 mm 3 mps 752 mmHg 64%
    01:00 +1°C° 0 mm 3 mps 752 mmHg 68%
    02:00 +1°C° 0 mm 3 mps 752 mmHg 70%
    03:00 +1°C° 0 mm 3 mps 753 mmHg 73%
    04:00 +1°C° 0 mm 3 mps 753 mmHg 75%
    05:00 +1°C° 0 mm 3 mps 754 mmHg 72%
    06:00 +2°C° 0 mm 3 mps 754 mmHg 69%
    07:00 +3°C° 0 mm 4 mps 755 mmHg 66%
    08:00 +4°C° 0 mm 4 mps 755 mmHg 60%
    09:00 +6°C° 0 mm 4 mps 755 mmHg 53%
    10:00 +8°C° 0 mm 5 mps 755 mmHg 46%
    11:00 +10°C° 0 mm 4 mps 755 mmHg 43%
    12:00 +11°C° 0 mm 4 mps 755 mmHg 39%
    13:00 +13°C° 0 mm 4 mps 754 mmHg 36%
    14:00 +13°C° 0 mm 4 mps 754 mmHg 36%
    15:00 +14°C° 0 mm 3 mps 754 mmHg 36%
    16:00 +14°C° 0 mm 3 mps 753 mmHg 36%
    17:00 +14°C° 0 mm 2 mps 754 mmHg 42%
    18:00 +12°C° 0 mm 1 mps 754 mmHg 48%
    19:00 +9°C° 0 mm 0 mps 755 mmHg 54%
    20:00 +9°C° 0 mm 0 mps 755 mmHg 55%
    21:00 +8°C° 0 mm 0 mps 755 mmHg 56%
    22:00 +9°C° 0 mm 1 mps 755 mmHg 58%
    23:00 +8°C° 0 mm 1 mps 756 mmHg 61%

    Day after tomorrow, 12 April, Sunday

    Time Temperature Precipitation Wind Pressure Humidity
    00:00 +8°C° 0 mm 1 mps 756 mmHg 64%
    01:00 +7°C° 0 mm 1 mps 756 mmHg 67%
    02:00 +7°C° 0 mm 1 mps 755 mmHg 69%
    03:00 +7°C° 0 mm 1 mps 755 mmHg 72%
    04:00 +6°C° 0 mm 1 mps 755 mmHg 74%
    05:00 +7°C° 0 mm 1 mps 756 mmHg 73%
    06:00 +7°C° 0 mm 2 mps 756 mmHg 73%
    07:00 +8°C° 0 mm 2 mps 756 mmHg 72%
    08:00 +11°C° 0 mm 3 mps 756 mmHg 66%
    09:00 +13°C° 0 mm 4 mps 756 mmHg 60%
    10:00 +16°C° 0 mm 5 mps 756 mmHg 54%
    11:00 +17°C° 0 mm 5 mps 755 mmHg 53%
    12:00 +19°C° 0 mm 6 mps 755 mmHg 51%
    13:00 +20°C° 0 mm 6 mps 755 mmHg 50%
    14:00 +20°C° 0 mm 6 mps 754 mmHg 51%
    15:00 +21°C° 0 mm 5 mps 754 mmHg 53%
    16:00 +21°C° 0 mm 5 mps 753 mmHg 54%
    17:00 +20°C° 0 mm 5 mps 753 mmHg 58%
    18:00 +19°C° 0 mm 4 mps 753 mmHg 61%
    19:00 +18°C° 0 mm 4 mps 753 mmHg 65%
    20:00 +17°C° 0.1 mm 5 mps 752 mmHg 70%
    21:00 +16°C° 0.1 mm 6 mps 752 mmHg 75%
    22:00 +16°C° 0.1 mm 6 mps 752 mmHg 81%
    23:00 +15°C° 2.5 mm 7 mps 750 mmHg 84%

    13 April, Monday

    Time Temperature Precipitation Wind Pressure Humidity
    00:00 +15°C° 2.5 mm 7 mps 749 mmHg 88%
    01:00 +14°C° 2.5 mm 7 mps 748 mmHg 92%
    02:00 +15°C° 1.5 mm 8 mps 747 mmHg 90%
    03:00 +15°C° 1.5 mm 8 mps 745 mmHg 89%
    04:00 +16°C° 1.5 mm 8 mps 744 mmHg 88%
    05:00 +17°C° 1.1 mm 9 mps 743 mmHg 88%
    06:00 +18°C° 1.1 mm 10 mps 741 mmHg 88%
    07:00 +19°C° 1.1 mm 11 mps 740 mmHg 88%
    08:00 +21°C° 0.2 mm 11 mps 740 mmHg 76%
    09:00 +23°C° 0.2 mm 11 mps 740 mmHg 65%
    10:00 +24°C° 0.2 mm 10 mps 741 mmHg 53%
    11:00 +24°C° 0 mm 10 mps 741 mmHg 52%
    12:00 +24°C° 0 mm 9 mps 742 mmHg 51%
    13:00 +24°C° 0 mm 9 mps 743 mmHg 50%
    14:00 +23°C° 0 mm 8 mps 743 mmHg 50%
    15:00 +22°C° 0 mm 8 mps 744 mmHg 49%
    16:00 +22°C° 0 mm 7 mps 745 mmHg 49%
    17:00 +20°C° 0 mm 7 mps 746 mmHg 51%
    18:00 +17°C° 0 mm 6 mps 747 mmHg 53%
    19:00 +15°C° 0 mm 5 mps 748 mmHg 55%
    20:00 +13°C° 0 mm 5 mps 749 mmHg 56%
    21:00 +10°C° 0 mm 5 mps 750 mmHg 56%
    22:00 +8°C° 0 mm 4 mps 752 mmHg 57%
    23:00 +6°C° 0 mm 4 mps 752 mmHg 59%

    14 April, Tuesday

    Time Temperature Precipitation Wind Pressure Humidity
    00:00 +5°C° 0 mm 4 mps 753 mmHg 60%
    01:00 +4°C° 0 mm 3 mps 753 mmHg 62%
    02:00 +4°C° 0 mm 3 mps 754 mmHg 63%
    03:00 +3°C° 0 mm 3 mps 754 mmHg 63%
    04:00 +3°C° 0 mm 4 mps 755 mmHg 63%
    05:00 +3°C° 0 mm 4 mps 755 mmHg 57%
    06:00 +3°C° 0 mm 4 mps 756 mmHg 51%
    07:00 +2°C° 0 mm 5 mps 757 mmHg 45%
    08:00 +3°C° 0 mm 5 mps 757 mmHg 41%
    09:00 +5°C° 0 mm 6 mps 757 mmHg 38%
    10:00 +7°C° 0 mm 6 mps 757 mmHg 34%
    11:00 +8°C° 0 mm 6 mps 757 mmHg 34%
    12:00 +9°C° 0 mm 6 mps 757 mmHg 33%
    13:00 +10°C° 0 mm 6 mps 757 mmHg 33%
    14:00 +10°C° 0 mm 6 mps 757 mmHg 33%
    15:00 +10°C° 0 mm 6 mps 757 mmHg 34%
    16:00 +10°C° 0 mm 6 mps 757 mmHg 34%
    17:00 +9°C° 0 mm 5 mps 757 mmHg 39%
    18:00 +7°C° 0 mm 4 mps 758 mmHg 45%
    19:00 +7°C° 0 mm 3 mps 758 mmHg 50%
    20:00 +5°C° 0 mm 3 mps 759 mmHg 52%
    21:00 +4°C° 0 mm 3 mps 760 mmHg 53%
    22:00 +5°C° 0 mm 2 mps 761 mmHg 54%
    23:00 +4°C° 0 mm 2 mps 761 mmHg 56%

    15 April, Wednesday

    Time Temperature Precipitation Wind Pressure Humidity
    00:00 +4°C° 0 mm 2 mps 761 mmHg 58%
    01:00 +3°C° 0 mm 2 mps 761 mmHg 60%
    02:00 +4°C° 0 mm 1 mps 761 mmHg 60%
    03:00 +4°C° 0 mm 1 mps 762 mmHg 60%
    04:00 +4°C° 0 mm 1 mps 762 mmHg 60%
    05:00 +4°C° 0 mm 1 mps 762 mmHg 59%
    06:00 +5°C° 0 mm 1 mps 762 mmHg 57%
    07:00 +6°C° 0 mm 1 mps 763 mmHg 56%
    08:00 +6°C° 0 mm 2 mps 762 mmHg 50%
    09:00 +8°C° 0 mm 2 mps 762 mmHg 45%
    10:00 +10°C° 0 mm 3 mps 762 mmHg 39%
    11:00 +11°C° 0 mm 3 mps 761 mmHg 38%
    12:00 +12°C° 0 mm 3 mps 761 mmHg 36%
    13:00 +13°C° 0 mm 3 mps 760 mmHg 34%
    14:00 +13°C° 0 mm 3 mps 759 mmHg 35%
    15:00 +13°C° 0 mm 3 mps 759 mmHg 36%
    16:00 +14°C° 0 mm 3 mps 758 mmHg 37%
    17:00 +12°C° 0 mm 3 mps 758 mmHg 43%
    18:00 +11°C° 0 mm 3 mps 758 mmHg 50%
    19:00 +9°C° 0 mm 2 mps 758 mmHg 56%
    20:00 +9°C° 0 mm 2 mps 758 mmHg 61%
    21:00 +8°C° 0 mm 2 mps 758 mmHg 66%
    22:00 +8°C° 0 mm 2 mps 758 mmHg 71%
    23:00 +8°C° 0 mm 2 mps 757 mmHg 74%
    Show more